星链-4643 (STARLINK-4643 )

导读

STARLINK-4643是美国太空探索技术公司星链计划中的一颗卫星,于2022年12月28日发射入轨。作为星链星座的组成部分,它主要为全球范围内用户提供低延迟、高速率的宽带互联网服务,尤其服务偏远地区及网络基础设施薄弱区域,进一步推动了星链全球卫星互联网组网进程。

基本信息
目录编号:
54824
目录名称:
STARLINK-4643
国际标识:
2022-177E
轨道中心:
EARTH
卫星名称:
星链-4643
卫星全名:
星链-4643 (STARLINK-4643 )
卫星状态:
在轨 (已飞行1267 天)
发射日期:
2022-12-28 UTC
国别 :
美国 (US)
星等 :
--
轨道信息
数据来源 国际轨道数据 AOE轨道数据
星历时间 2026-06-17T09:40:23+0800
6小时前
查看轨道信息
2026-06-12T07:00:00+0800
5天前
查看轨道信息
半长轴 6861.19km 6861.22km
偏心率 0.0001579 0.0001797
轨道倾角 43.005° 43.005°
近地点辐角 281.493° 271.870°
升交点赤经 294.700° 323.571°
平近点角 78.574° 26.296°
近地点 481.969km 481.85km
远地点 484.137km 484.316km
周期 94.267分钟 94.267分钟
每日圈数 15.27579 15.275689
详细信息
固有亮度:
5
最大亮度:
2.5
卫星平台:
Starlink v1.5
覆盖范围:
全球
运营商:
太空探索技术公司
运营商所在国:
美国
制造商(研发单位):
太空探索技术公司
制造商所在国:
美国
使用方式:
暂无
卫星简介
星链(Starlink)计划是由太空探索技术公司(SpaceX)提出的一个巨型低轨卫星互联网星座项目,计划在2019年至2024年间在太空搭建由约1.2万颗卫星组成的“星链”网络,其中1584颗将部署在地球上空550千米处的近地轨道,并从2020年开始工作。该卫星仍在工作。
2D轨道图
3D轨道图
轨道高度分析图
轨道倾角分析图
轨道综合分析图
查看轨道综合分析图